Wind_Speed
17 17 17 18 18 18 18 19 19 19 20 20 20 20 21 21 20 20 20 20 20 20 20 19 19 20 19 18 18 18 18 19 19 20 20 20 20 20
19 19 19 19 19 20 20 21 21 22 22 21 22 22 22 23 22 22 21 22 22 21 21 21 21 20 20 20 20 19 19 20 20 21 21 21 21 21
21 21 22 22 22 22 22 23 24 24 24 23 24 24 24 23 23 23 23 24 23 23 23 22 21 21 21 22 22 22 22 21 21 21 22 22 22 21
22 23 23 23 24 24 24 25 25 26 26 25 25 26 25 25 25 25 25 25 23 24 24 23 23 23 23 23 24 23 24 23 23 23 23 23 23 22
23 24 24 25 25 26 25 25 26 27 27 27 27 27 26 27 27 26 26 26 25 25 25 24 24 24 24 24 25 25 25 25 25 24 24 24 23 23
25 25 25 26 26 26 26 26 26 27 27 27 28 28 28 27 27 27 27 27 26 26 26 25 26 26 26 26 26 26 27 27 27 26 25 25 25 24
26 26 26 26 26 26 27 27 27 28 27 28 28 29 29 28 28 28 28 28 27 27 27 27 26 27 27 27 27 27 27 27 27 27 26 25 25 25
27 27 27 27 27 27 27 28 28 28 28 28 28 28 28 28 29 29 29 29 28 28 28 28 28 27 27 27 27 27 27 27 27 27 27 26 25 25
29 28 27 27 28 28 27 28 28 28 28 27 27 27 28 29 29 29 29 29 28 28 28 28 28 27 28 28 28 28 28 28 27 27 28 27 26 26
28 28 28 28 28 28 28 28 28 29 29 28 28 29 29 29 29 29 29 29 29 29 28 28 28 29 29 29 29 29 30 30 29 28 28 28 27 25
28 29 29 29 29 29 29 29 29 29 29 29 30 30 30 29 29 29 28 28 29 29 28 29 29 29 30 30 30 30 30 30 29 29 28 27 27 26
29 29 28 28 28 29 29 29 30 30 30 30 29 29 29 29 28 28 28 28 28 28 28 28 29 29 29 29 29 29 29 29 29 28 28 27 27 26
30 30 29 28 28 29 29 30 30 30 30 30 29 29 29 29 28 27 27 28 29 28 28 29 29 29 29 29 29 29 29 28 28 27 27 27 26 26
30 30 29 28 28 28 28 29 30 30 30 29 28 29 29 29 28 28 29 29 29 29 29 29 29 29 29 29 29 28 29 29 28 28 27 27 27 27
29 30 30 30 29 29 29 29 29 29 29 29 29 29 30 30 30 30 30 30 30 30 30 29 29 29 29 29 29 28 28 28 28 27 27 27 27 27
29 30 30 30 30 30 29 29 29 29 29 29 29 29 30 30 30 30 30 30 30 29 29 29 29 29 28 28 27 26 26 27 27 27 27 27 27 26
30 30 30 30 30 29 29 29 29 29 29 29 29 29 29 29 30 30 29 28 27 27 27 27 28 27 27 26 25 25 26 26 26 26 26 26 26 26
31 30 29 29 28 29 30 29 28 28 28 29 29 29 29 29 29 28 27 26 26 26 26 26 26 25 24 24 24 24 25 25 24 24 24 25 25 24
30 29 29 29 29 29 29 28 27 27 28 28 28 28 28 28 27 27 26 26 26 26 25 25 25 24 24 23 23 23 24 25 24 24 23 23 23 22
29 28 28 28 27 27 27 28 28 28 28 28 28 28 28 28 27 27 27 26 25 25 25 25 24 24 23 23 22 22 23 22 22 22 22 22 23 22
29 28 28 28 27 27 27 27 27 27 27 28 28 28 28 27 27 27 27 26 25 24 24 24 24 24 23 23 22 21 21 21 21 21 21 21 22 22
28 27 27 27 27 27 27 27 27 27 27 27 27 27 27 27 27 26 26 25 24 23 23 22 22 22 22 22 21 21 20 20 21 20 20 20 19 19
28 27 27 27 27 27 27 27 27 27 27 28 28 28 27 27 27 27 26 25 24 23 22 22 21 21 21 21 20 20 20 20 20 19 19 18 18 18
Wind_Direction
297 298 298 297 295 292 291 290 290 290 291 290 290 291 293 293 294 292 292 293 293 291 288 286 285 286 287 288 287 287 284 279 277 278 278 278 278 277
294 297 297 297 297 292 290 289 289 289 289 289 289 289 290 291 291 290 289 289 289 288 286 284 283 284 285 284 283 282 282 279 278 279 279 280 279 278
292 295 296 295 294 293 290 288 287 288 288 288 288 288 289 290 290 289 289 288 288 288 287 286 285 285 284 282 283 280 281 280 278 279 280 281 280 280
290 291 291 292 292 291 289 288 286 287 289 288 287 286 287 288 288 288 288 288 288 287 286 284 284 283 284 283 283 282 281 280 278 278 279 280 280 279
289 290 289 289 290 290 288 289 289 288 287 288 288 287 286 286 287 287 287 286 286 285 283 284 283 281 282 282 283 282 281 279 278 277 276 276 278 279
288 289 289 289 290 289 289 290 290 289 287 287 288 288 287 286 286 286 285 284 284 284 283 282 282 280 280 281 281 281 281 278 278 278 277 276 276 277
287 288 289 289 290 288 287 289 288 289 288 288 288 288 287 287 285 285 284 283 283 283 282 281 281 281 281 281 281 280 281 279 278 279 278 275 274 274
287 287 287 288 288 288 287 287 288 288 289 289 290 290 290 289 288 285 284 283 283 282 281 280 279 279 279 280 281 281 279 278 279 279 277 276 275 274
288 288 288 289 287 287 286 286 287 287 289 289 289 290 290 290 288 287 285 283 282 282 281 281 279 277 277 278 278 279 278 276 278 278 277 275 275 274
290 290 289 288 288 287 286 285 285 286 287 288 288 289 290 290 288 287 286 284 284 282 281 280 279 278 278 279 279 278 277 276 276 276 277 277 274 272
289 290 290 288 288 287 287 286 284 285 285 286 287 289 290 290 290 288 286 284 283 282 280 280 279 279 279 279 280 280 278 277 275 275 276 275 274 272
289 290 290 289 288 288 287 286 287 285 285 286 287 288 289 290 290 288 286 284 283 283 283 282 281 280 279 279 279 279 278 277 275 274 274 274 274 273
289 289 288 288 288 288 288 288 288 286 285 286 287 288 289 290 289 287 286 286 285 285 284 284 283 282 280 279 278 278 276 274 272 271 272 273 272 271
289 290 289 288 289 289 289 289 288 287 286 285 286 289 290 289 287 285 285 285 286 285 285 285 284 283 282 281 280 278 275 273 271 270 269 269 269 271
289 290 290 289 288 288 288 289 289 289 288 287 288 288 289 290 288 287 287 286 285 284 284 284 284 283 282 283 281 277 276 273 273 270 269 268 267 268
290 290 290 290 289 287 287 287 288 289 289 288 287 288 288 288 288 287 288 288 286 283 282 284 285 284 283 282 279 275 274 274 273 270 269 268 267 267
290 291 291 291 289 287 286 285 285 286 287 287 287 287 288 288 288 288 289 288 285 282 282 283 285 286 284 282 279 277 275 274 272 270 268 268 266 267
290 291 290 290 289 287 287 287 286 286 287 287 287 287 288 289 290 289 288 288 285 284 282 281 284 285 284 282 279 276 274 273 271 269 266 265 267 267
291 291 291 290 290 290 289 290 289 288 287 286 286 286 286 288 289 289 289 290 288 285 283 282 283 284 283 282 280 277 275 272 269 269 267 266 267 267
292 291 290 291 292 293 292 291 290 289 288 287 286 286 286 286 287 290 289 287 288 285 283 283 283 283 282 281 281 280 277 273 271 268 267 267 267 268
292 291 291 291 292 293 293 292 290 290 288 287 286 287 285 285 286 288 289 287 287 285 285 285 284 283 283 283 282 280 277 277 273 268 267 267 268 268
291 290 291 292 292 292 292 291 290 288 287 286 287 289 288 285 286 288 288 286 285 283 282 282 283 281 282 284 282 278 275 277 276 271 268 269 267 265
293 291 290 290 291 293 293 290 288 286 285 286 288 288 289 287 286 287 286 284 282 281 280 280 279 279 281 282 280 278 275 275 274 269 265 264 262 262
Height
5869 5868 5867 5866 5865 5864 5863 5863 5863 5862 5861 5860 5859 5858 5857 5857 5856 5855 5854 5853 5852 5851 5851 5850 5849 5848 5848 5847 5846 5845 5844 5844 5844 5844 5843 5843 5843 5842
5865 5864 5863 5862 5861 5860 5859 5858 5857 5856 5856 5855 5854 5853 5852 5851 5850 5849 5848 5847 5846 5846 5845 5844 5844 5843 5842 5842 5841 5841 5839 5839 5839 5838 5838 5837 5836 5836
5860 5859 5858 5857 5855 5855 5853 5852 5852 5851 5850 5849 5848 5847 5846 5845 5844 5843 5842 5841 5840 5839 5839 5838 5838 5837 5836 5836 5835 5835 5834 5833 5833 5832 5832 5831 5830 5829
5854 5853 5852 5851 5849 5848 5847 5846 5845 5844 5844 5843 5842 5841 5840 5839 5838 5837 5836 5835 5834 5833 5832 5832 5831 5831 5830 5829 5829 5828 5828 5827 5826 5826 5825 5824 5824 5823
5849 5847 5846 5844 5843 5842 5840 5839 5838 5837 5837 5836 5835 5834 5833 5832 5831 5830 5828 5827 5827 5826 5826 5825 5824 5823 5823 5823 5822 5822 5821 5820 5820 5819 5818 5817 5817 5816
5842 5840 5839 5838 5836 5835 5834 5832 5831 5830 5829 5829 5828 5826 5825 5824 5823 5822 5821 5820 5819 5819 5818 5818 5817 5816 5816 5815 5815 5814 5813 5813 5812 5811 5810 5810 5809 5809
5835 5833 5832 5831 5829 5828 5826 5825 5824 5823 5822 5821 5820 5819 5817 5816 5815 5814 5813 5812 5811 5810 5810 5810 5809 5809 5808 5807 5807 5806 5806 5805 5804 5803 5802 5802 5802 5801
5828 5826 5824 5823 5822 5820 5819 5818 5816 5815 5814 5813 5812 5810 5809 5808 5806 5805 5804 5804 5804 5803 5801 5801 5801 5801 5800 5800 5799 5798 5797 5797 5796 5795 5795 5794 5793 5793
5820 5818 5817 5815 5814 5812 5811 5810 5808 5807 5806 5805 5804 5802 5801 5800 5798 5797 5796 5795 5795 5794 5793 5793 5792 5792 5792 5791 5790 5789 5789 5788 5788 5787 5787 5786 5785 5785
5812 5810 5809 5807 5805 5804 5803 5802 5801 5799 5798 5797 5796 5795 5793 5791 5790 5788 5787 5786 5786 5785 5784 5784 5783 5783 5782 5782 5781 5780 5780 5779 5779 5779 5778 5778 5777 5777
5804 5802 5801 5799 5798 5796 5795 5794 5793 5791 5790 5789 5787 5786 5784 5783 5781 5780 5779 5778 5777 5776 5775 5774 5774 5773 5773 5772 5772 5771 5770 5770 5770 5770 5769 5769 5769 5768
5796 5794 5793 5791 5789 5787 5786 5785 5784 5783 5781 5780 5779 5777 5776 5774 5772 5771 5770 5769 5768 5767 5766 5765 5764 5764 5764 5763 5762 5762 5761 5761 5760 5760 5761 5761 5761 5760
5787 5786 5784 5783 5781 5779 5778 5776 5775 5774 5773 5772 5770 5769 5768 5766 5764 5763 5761 5760 5759 5758 5757 5756 5755 5755 5754 5754 5753 5753 5752 5751 5751 5751 5752 5752 5752 5752
5778 5777 5775 5774 5772 5771 5769 5768 5766 5765 5764 5762 5762 5760 5759 5757 5756 5754 5753 5751 5750 5750 5749 5748 5746 5745 5745 5744 5744 5743 5743 5742 5742 5743 5743 5743 5744 5744
5770 5768 5767 5765 5764 5762 5761 5759 5758 5756 5755 5754 5753 5752 5750 5749 5747 5746 5745 5743 5741 5740 5740 5739 5737 5736 5735 5735 5734 5734 5734 5733 5733 5734 5734 5735 5735 5736
5761 5760 5758 5757 5755 5754 5752 5750 5749 5747 5746 5745 5743 5742 5741 5740 5738 5737 5735 5734 5732 5732 5731 5729 5728 5727 5726 5726 5725 5725 5725 5725 5725 5725 5725 5726 5726 5727
5753 5751 5749 5748 5746 5744 5743 5742 5740 5739 5737 5736 5735 5734 5732 5731 5730 5728 5726 5724 5724 5723 5722 5721 5720 5719 5717 5717 5716 5716 5716 5716 5716 5717 5717 5717 5718 5718
5744 5743 5741 5739 5737 5735 5734 5733 5731 5729 5728 5727 5725 5724 5723 5722 5721 5719 5717 5716 5715 5714 5714 5713 5712 5710 5709 5709 5709 5708 5708 5708 5708 5708 5709 5710 5710 5711
5735 5733 5732 5730 5728 5727 5725 5723 5722 5721 5719 5718 5717 5716 5715 5714 5712 5711 5709 5708 5707 5706 5705 5705 5704 5702 5702 5701 5701 5700 5700 5700 5700 5700 5701 5702 5703 5703
5726 5725 5723 5721 5720 5718 5716 5715 5714 5712 5710 5709 5708 5707 5706 5705 5704 5703 5701 5700 5699 5698 5697 5696 5696 5694 5694 5693 5693 5693 5692 5692 5693 5693 5694 5694 5695 5696
5718 5716 5715 5713 5711 5710 5708 5707 5705 5704 5702 5701 5699 5698 5697 5696 5695 5694 5693 5692 5691 5690 5689 5689 5688 5687 5686 5685 5686 5686 5685 5685 5685 5686 5687 5687 5688 5689
5709 5708 5706 5704 5703 5701 5699 5698 5697 5695 5694 5692 5691 5690 5689 5688 5687 5686 5685 5684 5683 5682 5681 5680 5680 5679 5679 5679 5679 5679 5679 5679 5679 5679 5680 5681 5681 5682
5701 5699 5697 5696 5695 5693 5691 5689 5688 5687 5685 5684 5683 5682 5680 5679 5678 5677 5676 5675 5674 5674 5673 5672 5672 5672 5672 5672 5671 5671 5672 5672 5672 5673 5674 5675 5675 5676